Ketchikan, AK

9:25 AM AKDT on October 16, 2018 (GMT -0800)
Ketchikan International

Weather History for PAKT - October, 2018

Change the Weather History Date:

Monday, October 15, 2018

  Actual Average Record
Temperature  
Mean Temperature 52 °F -  
Max Temperature 59 °F 51 °F 66 °F (1963)
Min Temperature 44 °F 39 °F 24 °F (1992)
Degree Days  
Heating Degree Days 14    
Growing Degree Days 2 (Base 50)    
Moisture  
Dew Point 41 °F    
Average Humidity 74    
Maximum Humidity 93    
Minimum Humidity 42    
Precipitation  
Precipitation 0.00 in - - ()
Sea Level Pressure  
Sea Level Pressure 30.32 in    
Wind  
Wind Speed 9 mph (SE)    
Max Wind Speed 13 mph    
Max Gust Speed -    
Visibility 10 miles    
Events      
Averages and records for this station are not official NWS values.
T = Trace of Precipitation, MM = Missing Value Source: NWS Daily Summary

Daily Weather History Graph

Daily Weather History Graph

Search for Another Location

Airport or City:

Astronomy

Oct. 15, 2018 Rise Set
Actual Time 7:17 AM AKDT 5:46 PM AKDT
Civil Twilight 6:40 AM AKDT 6:23 PM AKDT
Nautical Twilight 5:58 AM AKDT 7:05 PM AKDT
Astronomical Twilight 5:15 AM AKDT 7:48 PM AKDT
Moon 2:25 PM AKDT (10/15) 10:07 PM AKDT (10/15)
Length of Visible Light 11h 43m
Length of Day
10h 29m
Waxing Crescent, 41% of the Moon is Illuminated
Oct 15
Waxing Crescent
Oct 16
First Quarter
Oct 24
Full
Oct 31
Last Quarter
Nov 7
New

Hourly Weather History & Observations

Time (AKDT) Temp. Windchill Dew Point Humidity Pressure Visibility Wind Dir Wind Speed Gust Speed Precip Events Conditions
12:53 AM 46.9 °F - 43.0 °F 86% 30.32 in 10.0 mi SE 8.1 mph - N/A   Clear
1:53 AM 46.9 °F - 43.0 °F 86% 30.33 in 10.0 mi South 8.1 mph - N/A   Clear
2:53 AM 48.0 °F - 43.0 °F 83% 30.33 in 10.0 mi SSE 12.7 mph - N/A   Clear
3:53 AM 48.9 °F - 43.0 °F 80% 30.33 in 10.0 mi SSE 10.4 mph - N/A   Scattered Clouds
4:07 AM 50.0 °F - 43.0 °F 77% 30.33 in 10.0 mi SSE 10.4 mph - N/A   Mostly Cloudy
4:15 AM 48.9 °F - 43.0 °F 80% 30.33 in 10.0 mi SSE 9.2 mph - N/A   Scattered Clouds
4:22 AM 48.9 °F - 43.0 °F 80% 30.33 in 10.0 mi SSE 10.4 mph - N/A   Mostly Cloudy
4:53 AM 48.0 °F - 43.0 °F 83% 30.33 in 10.0 mi SSE 10.4 mph - N/A   Overcast
5:53 AM 46.9 °F - 43.0 °F 86% 30.33 in 10.0 mi SSE 9.2 mph - N/A   Mostly Cloudy
6:04 AM 46.9 °F - 43.0 °F 86% 30.32 in 10.0 mi SSE 9.2 mph - N/A   Partly Cloudy
6:53 AM 44.6 °F 39.7 °F 42.8 °F 93% 30.33 in 10.0 mi SSE 9.2 mph - N/A   Clear
7:53 AM 46.4 °F 41.5 °F 42.8 °F 87% 30.34 in 10.0 mi SSE 10.4 mph - N/A   Partly Cloudy
8:53 AM 48.2 °F - 44.6 °F 87% 30.35 in 10.0 mi SE 9.2 mph - N/A   Clear
9:53 AM 50.0 °F - 44.6 °F 82% 30.35 in 10.0 mi SE 10.4 mph - N/A   Clear
10:53 AM 51.8 °F - 44.6 °F 76% 30.35 in 10.0 mi SE 9.2 mph - N/A   Clear
11:53 AM 53.6 °F - 42.8 °F 67% 30.35 in 10.0 mi SE 10.4 mph - N/A   Clear
12:53 PM 57.2 °F - 39.2 °F 51% 30.35 in 10.0 mi SE 11.5 mph - N/A   Clear
1:53 PM 57.2 °F - 37.4 °F 48% 30.34 in 10.0 mi SE 11.5 mph - N/A   Clear
2:53 PM 59.0 °F - 35.6 °F 42% 30.33 in 10.0 mi SE 10.4 mph - N/A   Clear
3:53 PM 57.2 °F - 35.6 °F 44% 30.33 in 10.0 mi SSE 5.8 mph - N/A   Clear
4:53 PM 53.6 °F - 39.2 °F 58% 30.32 in 10.0 mi ESE 4.6 mph - N/A   Clear
5:53 PM 52.0 °F - 37.0 °F 57% 30.31 in 10.0 mi SE 6.9 mph - N/A   Clear
6:53 PM 51.1 °F - 37.9 °F 61% 30.30 in 10.0 mi SSE 9.2 mph - N/A   Clear
7:53 PM 46.9 °F - 41.0 °F 80% 30.29 in 10.0 mi SE 8.1 mph - N/A   Clear
8:53 PM 46.9 °F - 39.0 °F 74% 30.29 in 10.0 mi SE 9.2 mph - N/A   Clear
9:53 PM 46.9 °F - 39.9 °F 77% 30.28 in 10.0 mi SE 11.5 mph - N/A   Clear
10:53 PM 46.9 °F - 39.9 °F 77% 30.28 in 10.0 mi SE 10.4 mph - N/A   Clear
11:53 PM 46.0 °F 41.0 °F 39.9 °F 79% 30.27 in 10.0 mi ESE 10.4 mph - N/A   Clear